Location: *
(37.5724°S, 58.0067°E)
Time: 11:27:58
(UTC+00:00)

USA 229 DEB - Pass Details

Date: 29 November 2021
Orbit: 943 x 1269 km, 63.4° (Epoch: 14 January)

Event Time Altitude Azimuth Distance (km) Brightness Sun altitude
Rises 20:44:56 0° 260° (W) 4,162 6.8 -29.7°
Reaches altitude 10° 20:49:54 10° 233° (SW) 3,138 6.4 -29.5°
Maximum altitude 20:53:02 13° 208° (SSW) 2,881 6.5 -29.3°
Drops below altitude 10° 20:56:07 10° 182° (S) 3,046 6.9 -29.2°
Sets 21:00:47 0° 154° (SSE) 3,925 7.9 -28.9°
